Weather Service Report


772 
ASUS44 KEWX 280011
RWRTX 
SOUTH TEXAS REGIONAL WEATHER ROUNDUP
NATIONAL WEATHER SERVICE AUSTIN/SAN ANTONIO TX
700 PM CDT TUE SEP 27 2016

NOTE: "FAIR" INDICATED FEW OR NO CLOUDS BELOW 12,000 FEET WITH NO
SIGNIFICANT WEATHER AND/OR OBSTRUCTIONS TO VISIBILITY.

* - THESE STATIONS ARE NOT NWS OR FAA STATIONS...AND ARE NOT SUBJECT
    TO NWS AND FAA QUALITY CONTROL.
 
TXZ171-172-183>190-280100-
TEXAS HILL COUNTRY AND EDWARDS PLATEAU
  
CITY           SKY/WX    TMP DP  RH WIND       PRES   REMARKS
JUNCTION       CLEAR     76  50  40 NE7       30.07S                  
6HR MIN TEMP:  73; 6HR MAX TEMP:  78;                                

*LLANO         CLOUDY    75  63  64 CALM      30.09R                  
BURNET         MOCLDY    73  57  57 NE5       30.08S                  
6HR MIN TEMP:  73; 6HR MAX TEMP:  77;                                

*HORSESHOE BAY CLOUDY    76  59  56 CALM      30.06S                  
6HR MIN TEMP:  73; 6HR MAX TEMP:  78;                                

*KERRVILLE     CLOUDY    74  63  69 CALM      30.07S                  
6HR MIN TEMP:  73; 6HR MAX TEMP:  76;                                

*FREDERICKSBRG CLOUDY    73  59  62 NE3       30.07S                  
6HR MIN TEMP:  70; 6HR MAX TEMP:  74;                                

*ROCKSPRINGS   CLEAR     73  59  60 CALM      30.11S                  
*BOERNE STAGE  CLOUDY    72  61  68 CALM      30.07S                  
*CASTROVILLE   CLOUDY    75  65  71 CALM      30.05S                  
HONDO          CLOUDY    77  65  66 E3        30.04S                  
6HR MIN TEMP:  76; 6HR MAX TEMP:  78;                                

*UVALDE        CLOUDY    75  66  73 CALM      30.05S                  
6HR MIN TEMP:  74; 6HR MAX TEMP:  77;                                

DEL RIO        CLOUDY    75  60  59 W5        30.04S                  
6HR MIN TEMP:  73; 6HR MAX TEMP:  79;                                

LAUGHLIN AFB   MOCLDY    75  62  62 W7        30.04S                  
6HR MIN TEMP:  74; 6HR MAX TEMP:  79;                                

CARRIZO SPRGS  CLOUDY    77  64  65 CALM      30.02S                  
*EAGLE PASS    NOT AVBL                                               
$$

TXZ173-191>194-202-209-217>225-228-280100-
CENTRAL AND SOUTH CENTRAL TEXAS
  
CITY           SKY/WX    TMP DP  RH WIND       PRES   REMARKS
GEORGETOWN     PTCLDY    75  57  53 CALM      30.03F                  
AUSTIN/BERGSTM MOCLDY    77  62  59 NE10      30.02S                  
6HR MIN TEMP:  76; 6HR MAX TEMP:  80;                                

AUSTIN/MABRY   MOCLDY    75  63  66 CALM      30.04S                  
6HR MIN TEMP:  75; 6HR MAX TEMP:  80;                                

*AUSTIN/EXEC   CLEAR     75  61  60 CALM      30.04S                  
*LAGO VISTA    CLOUDY    73  60  65 NW3       30.07R                  
6HR MIN TEMP:  73; 6HR MAX TEMP:  76;                                

SAN MARCOS     PTCLDY    73  64  73 NE5       30.05S                  
6HR MIN TEMP:  73; 6HR MAX TEMP:  77;                                

NEW BRAUNFELS  CLOUDY    75  63  66 N5        30.02S                  
6HR MIN TEMP:  75; 6HR MAX TEMP:  79;                                

RANDOLPH AFB   CLOUDY    74  64  70 NE3       30.03S                  
6HR MIN TEMP:  73; 6HR MAX TEMP:  76;                                

PT SAN ANTONIO MOCLDY    76  65  68 NE5       30.02S                  
6HR MIN TEMP:  74; 6HR MAX TEMP:  77;                                

SAN ANTONIO    MOCLDY    75  63  66 NE5       30.04S                  
6HR MIN TEMP:  73; 6HR MAX TEMP:  76;                                

STINSON FIELD  CLOUDY    77  65  66 N3        30.02S                  
6HR MIN TEMP:  76; 6HR MAX TEMP:  78;                                

*PLEASANTON    CLOUDY    76  65  70 N3        30.03S                  
6HR MIN TEMP:  74; 6HR MAX TEMP:  79;                                

*LA GRANGE     CLOUDY    78  67  69 N3        30.00S                  
6HR MIN TEMP:  76; 6HR MAX TEMP:  82;                                

*GIDDINGS      CLOUDY    75  63  64 CALM      30.06S                  
6HR MIN TEMP:  75; 6HR MAX TEMP:  78;                                

*GONZALES      CLOUDY    76  66  71 CALM      30.01F                  
6HR MIN TEMP:  74; 6HR MAX TEMP:  81;                                

$$

TXZ163>164-176>182-195>201-210>213-226-227-235-280100-
SOUTHEAST TEXAS
  
CITY           SKY/WX    TMP DP  RH WIND       PRES   REMARKS
COLLEGE STN    PTCLDY    78  63  59 NW5       30.01S                  
6HR MIN TEMP:  78; 6HR MAX TEMP:  81;                                

*BRYAN         PTCLDY    76  62  62 NW3       30.03R                  
6HR MIN TEMP:  76; 6HR MAX TEMP:  79;                                

*CALDWELL      NOT AVBL                                               
*CROCKETT      NOT AVBL                                               
*BRENHAM       PTCLDY    78  65  64 N5        30.01S                  
6HR MIN TEMP:  78; 6HR MAX TEMP:  83;                                

HUNTSVILLE     PTCLDY    76  64  66 CALM      30.00S                  
6HR MIN TEMP:  76; 6HR MAX TEMP:  81;                                

CONROE         CLOUDY    76  69  79 NW3       29.99S                  
6HR MIN TEMP:  76; 6HR MAX TEMP:  83;                                

HOUSTON BUSH   CLOUDY    79  68  69 N8        29.98R                  
6HR MIN TEMP:  79; 6HR MAX TEMP:  85;                                

HOUSTON HOBBY  MOCLDY    82  69  64 N8        29.96R                  
6HR MIN TEMP:  82; 6HR MAX TEMP:  85;                                

*HOUSTON SW AP CLOUDY    78  71  79 W5        29.97S                  
6HR MIN TEMP:  78; 6HR MAX TEMP:  84;                                

PEARLAND       MOCLDY    83  70  64 NW5       29.97S                  
6HR MIN TEMP:  83; 6HR MAX TEMP:  88; 6HR PCP: TRACE;                

HOUSTON HOOKS  MOCLDY    78  67  68 N7        29.98S                  
6HR MIN TEMP:  78; 6HR MAX TEMP:  84;                                

ELLINGTON FLD  MOCLDY    82  70  65 N6        29.97S                  
SUGAR LAND     MOCLDY    78  69  73 N5        29.97R                  
6HR MIN TEMP:  78; 6HR MAX TEMP:  84;                                

*HOUSTON EXEC  PTCLDY    79  68  69 N8        29.99S                  
*CLEVELAND MUN CLOUDY    78  69  73 NW5       29.99S                  
6HR MIN TEMP:  76; 6HR MAX TEMP:  84;                                

*WHARTON       MOCLDY   N/A N/A N/A NW8       29.98S                  
*COLUMBUS      FAIR      77  68  74 N5        30.00S                  
6HR MIN TEMP:  77; 6HR MAX TEMP:  83;                                

*EAGLE LAKE    MOCLDY    78  68  72 N5        29.98S                  
6HR MIN TEMP:  78; 6HR MAX TEMP:  83;                                

$$

TXZ214>216-236>238-280100-
THE UPPER TEXAS COAST
  
CITY           SKY/WX    TMP DP  RH WIND       PRES   REMARKS
*ORANGE        PTCLDY    78  68  71 CALM      29.97R                  
6HR MIN TEMP:  78; 6HR MAX TEMP:  85;                                

PORT ARTHUR    PTCLDY    80  70  71 N7        29.95R                  
6HR MIN TEMP:  80; 6HR MAX TEMP:  87;                                

GALVESTON      PTCLDY    82  72  71 N8        29.95S                  
6HR MIN TEMP:  80; 6HR MAX TEMP:  84;                                

ANGLETON       MOCLDY    81  73  76 NW5       29.95S                  
6HR MIN TEMP:  81; 6HR MAX TEMP:  86;                                

*BAY CITY      CLEAR     80  73  80 N3        29.96S                  
PALACIOS       MOCLDY    80  71  74 N8        29.96S                  
6HR MIN TEMP:  79; 6HR MAX TEMP:  85;                                

$$

TXZ229>234-239>247-280100-
TEXAS COASTAL BEND AND RIO GRANDE PLAINS
  
CITY           SKY/WX    TMP DP  RH WIND       PRES   REMARKS
VICTORIA       CLOUDY    79  69  71 N5        29.99R                  
6HR MIN TEMP:  79; 6HR MAX TEMP:  83;                                

*BEEVILLE      CLOUDY    78  71  79 N5        29.99S                  
6HR MIN TEMP:  78; 6HR MAX TEMP:  82;                                

ROCKPORT       MOCLDY    81  71  71 N12       29.96R                  
6HR MIN TEMP:  80; 6HR MAX TEMP:  84;                                

*PORT ARANSAS  CLEAR     80  72  76 N8        29.96S                  
6HR MIN TEMP:  78; 6HR MAX TEMP:  83;                                

*PORT LAVACA   NOT AVBL                                               
*INGLESIDE     CLEAR     81  73  75 N6        29.97R                  
CORPUS CHRISTI MOCLDY    81  73  76 N8        29.97R                  
6HR MIN TEMP:  78; 6HR MAX TEMP:  84;                                

CORPUS NAS     CLOUDY    81  73  76 N12       29.96S                  
6HR MIN TEMP:  77; 6HR MAX TEMP:  83;                                

*ROBSTOWN      LGT RAIN  80  73  78 NW3       29.98R                  
6HR MIN TEMP:  78; 6HR MAX TEMP:  82;                                

ALICE          MOCLDY    78  70  76 N8        29.98R                  
6HR MIN TEMP:  76; 6HR MAX TEMP:  82;                                

KINGSVILLE NAS CLOUDY    79  73  82 NW8       29.97R                  
6HR MIN TEMP:  76; 6HR MAX TEMP:  82; 6HR PCP: TRACE;                

COTULLA        CLOUDY    79  67  66 NE6       30.02S                  
6HR MIN TEMP:  77; 6HR MAX TEMP:  82;                                

*FAITH RANCH     N/A    N/A N/A N/A MISG        N/A                   
LAREDO         CLOUDY    74  65  73 NW5       30.03F                  
6HR MIN TEMP:  70; 6HR MAX TEMP:  75;                                

$$

TXZ248>255-280100-
DEEP SOUTH TEXAS
  
CITY           SKY/WX    TMP DP  RH WIND       PRES   REMARKS
BROWNSVILLE    CLOUDY    77  75  93 NW6       29.95R                  
6HR MIN TEMP:  76; 6HR MAX TEMP:  86; 6HR PCP:  0.07;                

PORT ISABEL    CLOUDY    79  75  87 N12       29.94R FOG              
6HR MIN TEMP:  76; 6HR MAX TEMP:  81; 6HR PCP:  0.06;                

*SOUTH PAC1F1C2F2C3F3C4F4C5F5C6F6C7M1C8M2C9!

Return to Home page


Western Regional Climate Center, wrcc@dri.edu